Regional Weather Roundup
Issued by NWS Glasgow, MT

Home | Current Version | Previous Version | Text Only | Print | Product List | Glossary On
Versions: 1 2 3 4 5 6 7 8 9 10 11 12 13 14 15 16 17 18 19 20 21 22 23 24 25 26 27 28 29 30 31 32 33 34 35 36 37 38 39 40 41 42 43 44 45 46 47 48 49 50
144
ASUS45 KGGW 221515
RWRGGW
HOURLY REGIONAL WEATHER ROUNDUP FOR NORTHEAST MONTANA
NATIONAL WEATHER SERVICE GLASGOW MONTANA
900 AM MDT SUN OCT 22 2017

NOTE: "FAIR" INDICATES FEW OR NO CLOUDS BELOW 12,000 FEET WITH NO
SIGNIFICANT WEATHER AND/OR OBSTRUCTIONS TO VISISBILITY.

NORTHEAST MONTANA


CITY           SKY/WX    TMP DP  RH WIND       PRES   REMARKS
GLASGOW        CLOUDY    43  30  60 S10       29.64F
WOLF POINT     CLOUDY    37  28  70 NE5       29.67F
JORDAN           N/A     53  33  46 SW22G31   29.68F
SIDNEY         CLOUDY    39  25  57 S13       29.73F
GLENDIVE       CLOUDY    41  22  46 S18G25    29.74F
SCOBEY           N/A     37  19  48 SE5       29.63F

FORT PECK REPORTS


CITY           SKY/WX    TMP DP  RH WIND       PRES   REMARKS
FORT PECK        N/A     50  36  58 S18         N/A
THE PINES        N/A     50  34  54 SW12G20     N/A

SOUTHEAST MONTANA


CITY           SKY/WX    TMP DP  RH WIND       PRES   REMARKS
BILLINGS       CLOUDY    51  27  39 W18       29.85R
MILES CITY     CLOUDY    42  25  50 CALM      29.80R
BAKER          CLOUDY    50  21  32 SW18      29.80F
LIVINGSTON     CLOUDY    51  31  46 SW40G61   29.88R

CENTRAL MONTANA


CITY           SKY/WX    TMP DP  RH WIND       PRES   REMARKS
HAVRE          CLOUDY    55  37  50 SW31G38   29.58F
LEWISTOWN      CLOUDY    54  32  43 SW30G36   29.75R
GREAT FALLS    CLOUDY    51  35  54 W15G29    29.73R
CUT BANK       MOCLDY    45  36  70 SW28      29.64R
HELENA         LGT RAIN  56  36  47 W13G28    29.83R
BUTTE          CLOUDY    47  34  60 SW8       29.96R
BOZEMAN        CLOUDY    54  31  41 SW20G32   29.92F

WESTERN MONTANA


CITY           SKY/WX    TMP DP  RH WIND       PRES   REMARKS
MISSOULA       LGT RAIN  49  41  74 SE5       29.87R
KALISPELL      NOT AVBL

NORTH DAKOTA


CITY           SKY/WX    TMP DP  RH WIND       PRES   REMARKS
WILLISTON      PTSUNNY   37  27  67 S6        29.73F
DICKINSON      MOSUNNY   45  22  40 SW17      29.76F
MINOT          SUNNY     43  29  57 SW12      29.74F
BISMARCK       SUNNY     41  28  60 CALM      29.85F

SOUTHERN SASKATCHEWAN


CITY           SKY/WX    TMP DP  RH WIND       PRES   REMARKS
REGINA         PTSUNNY   32  28  86 SE8       29.57F
ESTEVAN        PTSUNNY   37  27  65 S9        29.66F
SWIFT CURRENT  CLOUDY    45  34  65 SW18G26   29.45F





USA.gov is the U.S. government's official web portal to all federal, state and local government web resources and services.